Location: Memmingen
(47.9830°N, 10.1733°E)
Time: 08:49:54
(UTC+02:00)

ISS - Visible Passes

Search period start: 28 May 2017 00:00
Search period end: 07 June 2017 00:00
Orbit: 402 x 408 km, 51.6° (Epoch: 28 May)

Date Brightness Start Highest point End Pass type
(mag) Time Alt. Az. Time Alt. Az. Time Alt. Az.
28 May -2.5 00:06:33 10° WNW 00:09:43 41° N 00:12:52 10° ENE visible
28 May -3.6 01:43:12 10° WNW 01:46:30 69° NNE 01:47:25 43° E visible
28 May -2.6 23:14:22 10° W 23:17:34 44° N 23:20:45 10° ENE visible
29 May -3.1 00:51:09 10° WNW 00:54:24 53° NNE 00:56:01 25° E visible
29 May -1.7 02:27:44 10° WNW 02:28:37 17° W 02:28:37 17° W visible
29 May -2.9 22:22:10 10° W 22:25:25 52° NNW 22:28:39 10° ENE visible
29 May -2.7 23:59:04 10° WNW 00:02:15 45° N 00:05:09 12° E visible
30 May -2.8 01:35:37 10° WNW 01:37:45 37° W 01:37:45 37° W visible
30 May -2.5 23:06:55 10° WNW 23:10:05 42° N 23:13:15 10° ENE visible
31 May -3.8 00:43:32 10° WNW 00:46:51 79° NNE 00:47:05 72° ENE visible
31 May -2.5 22:14:43 10° WNW 22:17:53 43° N 22:21:04 10° ENE visible
31 May -3.3 23:51:28 10° WNW 23:54:44 58° NNE 23:56:30 24° E visible
01 Jun -1.7 01:28:04 10° WNW 01:29:07 18° W 01:29:07 18° W visible
01 Jun -2.8 22:59:20 10° WNW 23:02:33 47° N 23:05:46 10° E visible
02 Jun -3.4 00:35:53 10° WNW 00:38:36 50° WSW 00:38:36 50° WSW visible
02 Jun -2.6 22:07:10 10° WNW 22:10:20 42° N 22:13:31 10° ENE visible
02 Jun -3.9 23:43:45 10° WNW 23:47:04 90° NNE 23:48:06 41° ESE visible
03 Jun -3.5 22:51:37 10° WNW 22:54:55 64° NNE 22:57:39 14° E visible
04 Jun -2.3 00:28:19 10° W 00:30:17 25° WSW 00:30:17 25° WSW visible
04 Jun -3.0 21:59:29 10° WNW 22:02:44 50° NNE 22:05:57 10° E visible
04 Jun -3.5 23:36:02 10° WNW 23:39:15 50° SSW 23:39:51 43° S visible
05 Jun -3.9 22:43:51 10° WNW 22:47:10 79° SSW 22:49:26 18° ESE visible
06 Jun -1.4 00:21:09 10° W 00:22:05 14° WSW 00:22:05 14° WSW visible
06 Jun -3.6 21:51:41 10° WNW 21:55:00 72° NNE 21:58:17 10° ESE visible
06 Jun -2.5 23:28:29 10° W 23:31:16 25° SW 23:31:42 25° SSW visible
